Location: Fours
(44.3167°N, 6.7000°E)
Time: 11:41:00
(UTC+00:00)

USA 281 - Pass Details

Date: 30 November 2020
Orbit: 1074 x 1084 km, 106.0° (Epoch: 22 January)

Event Time Altitude Azimuth Distance (km) Brightness Sun altitude
Rises 18:08:01 0° 150° (SSE) 3,870 5.9 -23.1°
Reaches altitude 10° 18:10:31 10° 150° (SSE) 2,916 5.3 -23.5°
Maximum altitude 18:17:05 82° 64° (ENE) 1,095 3.1 -24.7°
Drops below altitude 10° 18:23:40 10° 337° (NNW) 2,926 5.7 -25.8°
Sets 18:26:11 0° 337° (NNW) 3,884 6.4 -26.3°
